Hourly Weather Potosi

Today, 31 October, Saturday

Time Temperature Precipitation Wind Pressure Humidity
00:00 +6°C° 0 mm 2 mps 467 mmHg 78%
01:00 +5°C° 0 mm 2 mps 467 mmHg 77%
02:00 +5°C° 0 mm 2 mps 466 mmHg 76%
03:00 +5°C° 0 mm 2 mps 466 mmHg 78%
04:00 +5°C° 0 mm 2 mps 466 mmHg 81%
05:00 +4°C° 0 mm 2 mps 466 mmHg 83%
06:00 +5°C° 0 mm 2 mps 466 mmHg 80%
07:00 +5°C° 0 mm 2 mps 467 mmHg 76%
08:00 +5°C° 0 mm 2 mps 467 mmHg 73%
09:00 +7°C° 0 mm 2 mps 468 mmHg 64%
10:00 +8°C° 0 mm 3 mps 469 mmHg 54%
11:00 +10°C° 0 mm 3 mps 470 mmHg 45%
12:00 +11°C° 0 mm 3 mps 470 mmHg 42%
13:00 +12°C° 0 mm 4 mps 470 mmHg 40%
14:00 +13°C° 0 mm 5 mps 470 mmHg 38%
15:00 +12°C° 0 mm 5 mps 469 mmHg 42%
16:00 +10°C° 0 mm 5 mps 468 mmHg 46%
17:00 +9°C° 0 mm 5 mps 468 mmHg 51%
18:00 +8°C° 0 mm 4 mps 467 mmHg 57%
19:00 +7°C° 0 mm 4 mps 467 mmHg 63%
20:00 +5°C° 0 mm 3 mps 466 mmHg 69%
21:00 +5°C° 0 mm 3 mps 466 mmHg 71%
22:00 +4°C° 0 mm 3 mps 466 mmHg 74%
23:00 +4°C° 0 mm 3 mps 466 mmHg 76%

Tomorrow, 1 November, Sunday

Time Temperature Precipitation Wind Pressure Humidity
00:00 +4°C° 0 mm 3 mps 466 mmHg 76%
01:00 +5°C° 0 mm 2 mps 466 mmHg 76%
02:00 +5°C° 0 mm 2 mps 466 mmHg 76%
03:00 +4°C° 0 mm 2 mps 466 mmHg 77%
04:00 +4°C° 0 mm 2 mps 465 mmHg 78%
05:00 +5°C° 0 mm 1 mps 465 mmHg 79%
06:00 +5°C° 0 mm 1 mps 466 mmHg 72%
07:00 +6°C° 0 mm 1 mps 467 mmHg 65%
08:00 +7°C° 0 mm 1 mps 467 mmHg 58%
09:00 +8°C° 0 mm 1 mps 468 mmHg 48%
10:00 +9°C° 0 mm 2 mps 469 mmHg 37%
11:00 +11°C° 0 mm 3 mps 470 mmHg 27%
12:00 +12°C° 0 mm 3 mps 470 mmHg 26%
13:00 +13°C° 0 mm 3 mps 470 mmHg 25%
14:00 +14°C° 0 mm 4 mps 470 mmHg 25%
15:00 +13°C° 0 mm 4 mps 469 mmHg 30%
16:00 +12°C° 0 mm 4 mps 468 mmHg 36%
17:00 +10°C° 0 mm 5 mps 467 mmHg 42%
18:00 +10°C° 0 mm 4 mps 466 mmHg 50%
19:00 +7°C° 0 mm 4 mps 466 mmHg 58%
20:00 +6°C° 0 mm 4 mps 466 mmHg 66%
21:00 +5°C° 0 mm 4 mps 465 mmHg 69%
22:00 +5°C° 0 mm 3 mps 465 mmHg 72%
23:00 +4°C° 0 mm 3 mps 465 mmHg 76%

Day after tomorrow, 2 November, Monday

Time Temperature Precipitation Wind Pressure Humidity
00:00 +4°C° 0 mm 3 mps 465 mmHg 75%
01:00 +5°C° 0 mm 2 mps 465 mmHg 74%
02:00 +5°C° 0 mm 2 mps 465 mmHg 73%
03:00 +4°C° 0 mm 2 mps 465 mmHg 74%
04:00 +4°C° 0 mm 2 mps 464 mmHg 75%
05:00 +4°C° 0 mm 1 mps 464 mmHg 76%
06:00 +5°C° 0 mm 1 mps 465 mmHg 70%
07:00 +5°C° 0 mm 1 mps 465 mmHg 64%
08:00 +6°C° 0 mm 1 mps 466 mmHg 58%
09:00 +6°C° 0 mm 2 mps 467 mmHg 49%
10:00 +8°C° 0 mm 2 mps 467 mmHg 39%
11:00 +10°C° 0 mm 3 mps 468 mmHg 30%
12:00 +11°C° 0 mm 4 mps 468 mmHg 30%
13:00 +11°C° 0 mm 4 mps 468 mmHg 31%
14:00 +12°C° 0 mm 5 mps 468 mmHg 31%
15:00 +10°C° 0 mm 5 mps 467 mmHg 37%
16:00 +9°C° 0 mm 5 mps 467 mmHg 42%
17:00 +9°C° 0 mm 5 mps 466 mmHg 47%
18:00 +7°C° 0 mm 5 mps 466 mmHg 54%
19:00 +6°C° 0 mm 5 mps 465 mmHg 61%
20:00 +5°C° 0 mm 5 mps 465 mmHg 68%
21:00 +4°C° 0 mm 4 mps 465 mmHg 70%
22:00 +4°C° 0 mm 3 mps 465 mmHg 71%
23:00 +3°C° 0 mm 3 mps 465 mmHg 73%

3 November, Tuesday

Time Temperature Precipitation Wind Pressure Humidity
00:00 +4°C° 0 mm 2 mps 465 mmHg 73%
01:00 +4°C° 0 mm 2 mps 465 mmHg 72%
02:00 +4°C° 0 mm 2 mps 465 mmHg 72%
03:00 +3°C° 0 mm 2 mps 464 mmHg 74%
04:00 +4°C° 0 mm 1 mps 464 mmHg 77%
05:00 +4°C° 0 mm 1 mps 464 mmHg 79%
06:00 +4°C° 0 mm 1 mps 465 mmHg 74%
07:00 +5°C° 0 mm 1 mps 466 mmHg 70%
08:00 +5°C° 0 mm 0 mps 467 mmHg 66%
09:00 +8°C° 0 mm 1 mps 468 mmHg 57%
10:00 +8°C° 0 mm 2 mps 469 mmHg 48%
11:00 +10°C° 0 mm 3 mps 470 mmHg 39%
12:00 +11°C° 0 mm 4 mps 470 mmHg 36%
13:00 +12°C° 0 mm 5 mps 470 mmHg 33%
14:00 +13°C° 0 mm 6 mps 470 mmHg 30%
15:00 +11°C° 0 mm 7 mps 469 mmHg 34%
16:00 +10°C° 0 mm 7 mps 469 mmHg 38%
17:00 +10°C° 0 mm 8 mps 468 mmHg 42%
18:00 +9°C° 0 mm 7 mps 468 mmHg 47%
19:00 +7°C° 0 mm 6 mps 468 mmHg 53%
20:00 +6°C° 0 mm 5 mps 467 mmHg 58%
21:00 +6°C° 0 mm 4 mps 467 mmHg 60%
22:00 +5°C° 0 mm 4 mps 468 mmHg 61%
23:00 +5°C° 0 mm 3 mps 468 mmHg 62%

4 November, Wednesday

Time Temperature Precipitation Wind Pressure Humidity
00:00 +5°C° 0 mm 2 mps 467 mmHg 64%
01:00 +5°C° 0 mm 2 mps 467 mmHg 65%
02:00 +6°C° 0 mm 1 mps 466 mmHg 67%
03:00 +5°C° 0 mm 1 mps 466 mmHg 68%
04:00 +5°C° 0 mm 1 mps 466 mmHg 70%
05:00 +4°C° 0 mm 0 mps 466 mmHg 72%
06:00 +5°C° 0 mm 0 mps 467 mmHg 65%
07:00 +7°C° 0 mm 1 mps 468 mmHg 58%
08:00 +8°C° 0 mm 1 mps 468 mmHg 52%
09:00 +9°C° 0 mm 1 mps 469 mmHg 43%
10:00 +10°C° 0 mm 2 mps 470 mmHg 35%
11:00 +13°C° 0 mm 2 mps 471 mmHg 27%
12:00 +13°C° 0 mm 3 mps 471 mmHg 25%
13:00 +14°C° 0 mm 4 mps 471 mmHg 24%
14:00 +15°C° 0 mm 5 mps 471 mmHg 22%
15:00 +14°C° 0 mm 6 mps 471 mmHg 24%
16:00 +14°C° 0 mm 6 mps 470 mmHg 26%
17:00 +12°C° 0 mm 7 mps 469 mmHg 28%
18:00 +11°C° 0 mm 6 mps 469 mmHg 34%
19:00 +10°C° 0 mm 5 mps 468 mmHg 40%
20:00 +8°C° 0 mm 4 mps 468 mmHg 45%
21:00 +9°C° 0 mm 3 mps 468 mmHg 46%
22:00 +9°C° 0 mm 2 mps 468 mmHg 47%
23:00 +9°C° 0 mm 1 mps 468 mmHg 48%

5 November, Thursday

Time Temperature Precipitation Wind Pressure Humidity
00:00 +9°C° 0 mm 1 mps 468 mmHg 50%
01:00 +8°C° 0 mm 1 mps 467 mmHg 53%
02:00 +8°C° 0 mm 1 mps 467 mmHg 55%
03:00 +7°C° 0 mm 0 mps 466 mmHg 56%
04:00 +6°C° 0 mm 0 mps 466 mmHg 57%
05:00 +6°C° 0 mm 0 mps 466 mmHg 58%
06:00 +7°C° 0 mm 0 mps 467 mmHg 52%
07:00 +9°C° 0 mm 1 mps 468 mmHg 45%
08:00 +11°C° 0 mm 1 mps 469 mmHg 38%
09:00 +12°C° 0 mm 1 mps 469 mmHg 34%
10:00 +14°C° 0 mm 2 mps 470 mmHg 29%
11:00 +16°C° 0 mm 2 mps 471 mmHg 24%
12:00 +16°C° 0 mm 3 mps 471 mmHg 24%
13:00 +17°C° 0 mm 4 mps 471 mmHg 23%
14:00 +16°C° 0 mm 5 mps 470 mmHg 23%
15:00 +15°C° 0.1 mm 5 mps 469 mmHg 26%
16:00 +14°C° 0.1 mm 5 mps 468 mmHg 30%
17:00 +13°C° 0.1 mm 5 mps 467 mmHg 34%
18:00 +12°C° 0 mm 5 mps 468 mmHg 34%
19:00 +10°C° 0 mm 5 mps 468 mmHg 35%
20:00 +11°C° 0 mm 4 mps 468 mmHg 36%
21:00 +10°C° 0 mm 3 mps 468 mmHg 38%
22:00 +10°C° 0 mm 2 mps 468 mmHg 41%
23:00 +9°C° 0 mm 2 mps 468 mmHg 44%
Show more